Volver al catálogo

STARLINK-32600

ActivoComunicacionesVLEO
NORAD 62178·PAYLOAD·🇺🇸 United States

Lanzado Nov 30, 2024 desde Vandenberg Space Force Base

Loading…

Próximos Pases (próximas 24 horas)

TLE

ActualizadoSource: CelesTrak SupGP

Época: Sep 14, 2026, 22:42 UTC

1 62178C 24225R   26257.94631944 -.00017983  00000+0 -62570-3 0  2570
2 62178  70.0012  35.5947 0003310 273.9485 161.3741 15.29580398    18

Sigue STARLINK-32600 en tiempo real con AllMySat

Download on the App Store